EW9755 Weather Reports


Display with metric or nautical units.
time (UTC)temp
F
wind
direction
speed
MPH
gust
MPH
rain 1hr
in
rain 24hr
in
rain mn
in
humidity
%
barometer
mb
20260502151858 63 359 21.0 26.0 0.00 0.00 0.00 71 1019.5
20260502151218 62 1 18.0 24.0 0.00 0.00 0.00 74 1019.2
20260502150538 62 360 18.0 22.0 0.00 0.00 0.00 74 1019.2
20260502150108 62 358 16.0 22.0 0.00 0.00 0.00 77 1019.5
20260502130538 56 347 19.0 24.0 0.00 0.00 0.00 84 1018.5
20260502123432 55 348 20.0 24.0 0.00 0.00 0.00 86 1018.1
20260502122538 55 348 16.0 23.0 0.00 0.00 0.00 86 1018.1
20260502121858 55 343 16.0 22.0 0.00 0.00 0.00 86 1018.1
20260502121218 55 336 18.0 22.0 0.00 0.00 0.00 86 1017.5
20260502120538 56 340 16.0 21.0 0.00 0.00 0.00 87 1017.5
20260502115858 55 342 15.0 20.0 0.00 0.00 0.00 88 1017.5
20260502115430 56 345 11.0 18.0 0.00 0.00 0.00 90 1017.5
20260502114751 55 348 15.0 20.0 0.00 0.00 0.00 90 1017.1
20260502113858 55 353 13.0 17.0 0.00 0.00 0.00 90 1017.1
20260502113427 55 346 13.0 21.0 0.00 0.00 0.00 90 1017.1
20260502112748 56 345 12.0 21.0 0.00 0.00 0.00 90 1016.8
20260502111858 55 349 16.0 20.0 0.00 0.00 0.00 89 1016.5
20260502111218 56 350 15.0 20.0 0.00 0.00 0.00 89 1016.5
20260502110538 56 349 15.0 20.0 0.00 0.00 0.00 89 1016.5
20260502110110 56 348 14.0 20.0 0.00 0.00 0.00 90 1016.5
20260502105218 56 349 12.0 18.0 0.00 0.00 0.00 90 1016.5
20260502104538 56 354 14.0 19.0 0.00 0.00 0.00 89 1016.5
20260502103858 56 350 15.0 19.0 0.00 0.00 0.00 89 1016.1
20260502103428 56 353 14.0 20.0 0.00 0.00 0.00 89 1016.1
20260502102539 56 348 14.0 23.0 0.00 0.00 0.00 89 1016.1
20260502101858 56 348 18.0 23.0 0.00 0.00 0.00 89 1015.8
20260502101218 57 344 15.0 21.0 0.00 0.00 0.00 91 1015.8
20260502100538 57 343 16.0 24.0 0.00 0.00 0.00 92 1015.4
20260502091431 58 343 17.0 21.0 0.00 0.00 0.00 93 1015.1
20260502090538 58 351 16.0 21.0 0.00 0.00 0.00 93 1014.8
20260502071220 58 356 21.0 27.0 0.00 0.00 0.00 92 1014.8
20260502070747 58 2 20.0 27.0 0.00 0.00 0.00 93 1015.1
20260502065858 58 1 17.0 24.0 0.00 0.00 0.00 92 1014.8
20260502065218 58 3 21.0 26.0 0.00 0.00 0.00 92 1014.8
20260502064749 58 6 18.0 27.0 0.00 0.00 0.00 93 1014.8
20260502063858 57 1 21.0 27.0 0.00 0.00 0.00 93 1014.8
20260502063218 57 358 22.0 29.0 0.00 0.00 0.00 92 1014.8
20260502062538 57 355 22.0 29.0 0.00 0.00 0.00 92 1014.4
20260502061859 57 359 18.0 30.0 0.00 0.00 0.00 93 1014.8
20260502061218 57 357 20.0 27.0 0.00 0.00 0.00 93 1014.4
20260502060538 57 355 17.0 27.0 0.00 0.00 0.00 94 1014.8
20260502055858 57 353 18.0 28.0 0.00 0.00 0.00 94 1014.8
20260502055218 57 346 21.0 30.0 0.00 0.00 0.00 94 1014.8
20260502054538 57 344 23.0 30.0 0.00 0.00 0.00 93 1014.1
20260502053858 57 346 22.0 31.0 0.00 0.00 0.00 93 1014.1
20260502053218 58 353 25.0 32.0 0.00 0.00 0.00 93 1014.4
20260502052538 58 351 23.0 32.0 0.00 0.00 0.00 94 1013.7
20260502051858 58 352 21.0 30.0 0.00 0.00 0.00 94 1014.1
20260502051218 58 353 22.0 28.0 0.00 0.00 0.00 94 1013.7
20260502050538 58 353 19.0 30.0 0.00 0.00 0.00 93 1013.7
20260502045858 58 352 24.0 34.0 0.00 0.00 0.65 93 1013.7
20260502045430 58 344 22.0 34.0 0.00 0.00 0.65 93 1013.4
20260502044750 59 348 26.0 34.0 0.00 0.00 0.65 93 1013.7
20260502044111 59 350 23.0 29.0 0.00 0.00 0.65 93 1013.4
20260502043218 59 350 22.0 29.0 0.00 0.00 0.65 94 1014.1
20260502042538 59 350 20.0 28.0 0.00 0.00 0.65 94 1014.1
20260502041858 59 350 22.0 26.0 0.00 0.00 0.65 94 1013.7
20260502041218 60 347 20.0 24.0 0.00 0.00 0.65 94 1013.7
20260502040538 60 351 16.0 26.0 0.00 0.00 0.65 95 1013.7
20260502040110 60 8 20.0 26.0 0.00 0.00 0.65 95 1013.4
20260502035218 60 2 17.0 23.0 0.00 0.00 0.65 95 1013.4
20260502034538 60 349 16.0 25.0 0.00 0.00 0.65 96 1013.7
20260502033858 60 357 21.0 28.0 0.00 0.00 0.65 95 1013.4
20260502033218 60 3 16.0 26.0 0.00 0.00 0.65 97 1013.4
20260502032748 60 360 20.0 26.0 0.00 0.00 0.65 97 1013.1
20260502031858 60 5 18.0 27.0 0.00 0.00 0.65 97 1013.1
20260502031218 60 1 18.0 24.0 0.00 0.00 0.65 97 1013.1
20260502030538 60 359 18.0 27.0 0.00 0.00 0.65 97 1012.0
20260502025858 60 356 21.0 25.0 0.00 0.00 0.65 97 1012.7
20260502025218 60 3 17.0 23.0 0.00 0.00 0.65 97 1012.7
20260502024538 60 359 18.0 23.0 0.00 0.00 0.65 96 1013.1
20260502023858 60 348 15.0 21.0 0.00 0.00 0.65 98 1013.1
20260502023218 60 340 17.0 26.0 0.00 0.00 0.65 97 1012.7
20260502022538 60 353 21.0 26.0 0.00 0.00 0.65 97 1012.0
20260502021858 61 353 20.0 24.0 0.00 0.00 0.65 98 1012.0
20260502021218 61 347 18.0 24.0 0.00 0.00 0.65 98 1012.4
20260502020538 61 344 16.0 24.0 0.00 0.00 0.65 98 1012.7
20260502015858 61 347 19.0 26.0 0.00 0.00 0.64 98 1012.0
20260502015218 61 348 17.0 26.0 0.00 0.00 0.62 97 1012.0
20260502014538 61 351 19.0 24.0 0.00 0.00 0.61 97 1012.0
20260502013858 61 356 20.0 24.0 0.00 0.00 0.57 96 1011.7
20260502013219 61 7 18.0 23.0 0.00 0.00 0.53 95 1011.7
20260502012538 62 352 17.0 26.0 0.00 0.00 0.50 94 1011.7
20260502012110 61 355 20.0 25.0 0.00 0.00 0.46 95 1011.4
20260502011218 61 4 18.0 26.0 0.00 0.00 0.46 95 1011.0
20260502010538 61 350 21.0 31.0 0.00 0.00 0.46 94 1011.0
20260502005858 62 350 21.0 33.0 0.00 0.00 0.46 95 1011.0
20260502005218 62 349 25.0 33.0 0.00 0.00 0.46 94 1011.0
20260502004538 63 335 20.0 30.0 0.00 0.00 0.46 94 1011.0
20260502003858 64 338 25.0 30.0 0.00 0.00 0.45 93 1010.7
20260502003429 64 330 22.0 36.0 0.00 0.00 0.38 93 1010.7
20260502002538 64 355 29.0 36.0 0.00 0.00 0.37 93 1009.3
20260502001858 64 346 23.0 32.0 0.00 0.00 0.37 95 1009.3
20260502001218 64 353 25.0 32.0 0.00 0.00 0.37 95 1008.3
20260502000538 64 3 21.0 34.0 0.00 0.00 0.37 95 1008.3
20260501235858 64 0 23.0 30.0 0.00 0.00 0.37 95 1007.3
20260501235218 64 7 25.0 33.0 0.00 0.00 0.37 95 1007.3
20260501234538 64 360 25.0 33.0 0.00 0.00 0.37 95 1008.0
20260501234109 64 358 18.0 35.0 0.00 0.00 0.37 96 1008.3
20260501233218 64 6 29.0 35.0 0.00 0.00 0.37 96 1007.6
20260501232750 65 2 19.0 29.0 0.00 0.00 0.37 96 1008.0
20260501231858 65 0 21.0 34.0 0.00 0.00 0.37 95 1007.6
20260501231218 65 8 26.0 33.0 0.00 0.00 0.37 96 1007.3
20260501230538 65 6 24.0 34.0 0.00 0.00 0.37 96 1007.3
20260501225858 65 7 21.0 30.0 0.00 0.00 0.37 96 1008.0
20260501225428 66 3 21.0 30.0 0.00 0.00 0.37 95 1007.6
20260501224749 66 5 18.0 35.0 0.00 0.00 0.37 94 1008.3
20260501223858 66 17 26.0 34.0 0.00 0.00 0.37 94 1007.6
20260501223218 66 15 25.0 33.0 0.00 0.00 0.37 94 1007.6
20260501222751 66 16 24.0 34.0 0.00 0.00 0.37 94 1008.0
20260501221858 66 14 26.0 34.0 0.00 0.00 0.37 94 1008.6
20260501221218 66 11 28.0 32.0 0.00 0.00 0.36 96 1008.3
20260501220748 66 10 23.0 30.0 0.00 0.00 0.36 97 1009.0
20260501215218 66 356 16.0 36.0 0.00 0.00 0.36 96 1008.3
20260501214538 66 11 25.0 36.0 0.00 0.00 0.36 97 1007.3
20260501213858 66 9 25.0 36.0 0.00 0.00 0.36 97 1007.3
20260501213218 66 11 29.0 36.0 0.00 0.00 0.36 97 1007.6
20260501212538 66 356 19.0 30.0 0.00 0.00 0.34 95 1008.6
20260501211858 67 1 21.0 30.0 0.00 0.00 0.34 95 1008.6
20260501211218 67 20 21.0 29.0 0.00 0.00 0.19 92 1008.6
20260501210538 67 1 17.0 33.0 0.00 0.00 0.17 93 1010.0
20260501205858 67 20 22.0 32.0 0.00 0.00 0.17 93 1007.6
20260501205218 67 25 22.0 32.0 0.00 0.00 0.17 93 1007.3
20260501204538 67 20 24.0 35.0 0.00 0.00 0.17 92 1007.3
20260501203858 67 21 24.0 35.0 0.00 0.00 0.17 93 1007.3
20260501203218 67 17 27.0 35.0 0.00 0.00 0.17 93 1007.0
20260501202538 67 23 25.0 35.0 0.00 0.00 0.17 93 1007.0
20260501201858 67 24 24.0 39.0 0.00 0.00 0.17 93 1007.0
20260501201218 67 21 26.0 35.0 0.00 0.00 0.17 94 1006.6
20260501200749 67 25 23.0 35.0 0.00 0.00 0.17 94 1007.0
20260501200110 67 17 26.0 37.0 0.00 0.00 0.17 93 1007.6
20260501195218 67 21 27.0 37.0 0.00 0.00 0.17 94 1007.6
20260501194751 67 24 22.0 33.0 0.00 0.00 0.17 95 1007.3
20260501193859 67 28 24.0 33.0 0.00 0.00 0.17 96 1007.3
20260501193218 67 30 18.0 24.0 0.00 0.00 0.17 97 1007.6
20260501192538 68 33 19.0 26.0 0.00 0.00 0.17 96 1007.6
20260501191858 68 26 20.0 27.0 0.00 0.00 0.17 95 1008.0
20260501191218 68 19 18.0 30.0 0.00 0.00 0.17 94 1008.3
20260501190538 68 17 22.0 30.0 0.00 0.00 0.17 93 1008.0
20260501185858 67 18 20.0 29.0 0.00 0.00 0.17 92 1008.0
20260501185431 67 18 20.0 29.0 0.00 0.00 0.17 92 1008.6
20260501184538 66 11 17.0 28.0 0.00 0.00 0.17 92 1008.3
20260501183858 66 8 21.0 28.0 0.00 0.00 0.17 91 1008.3
20260501183218 66 3 18.0 23.0 0.00 0.00 0.17 90 1008.6
20260501182538 66 7 16.0 23.0 0.00 0.00 0.17 89 1009.0
20260501181858 67 9 17.0 23.0 0.00 0.00 0.17 88 1009.0
20260501181430 67 6 18.0 23.0 0.00 0.00 0.16 88 1008.6
20260501180538 66 9 16.0 31.0 0.00 0.00 0.16 91 1009.0
20260501175858 66 358 22.0 31.0 0.00 0.00 0.16 92 1008.6
20260501175218 65 359 23.0 30.0 0.00 0.00 0.16 94 1008.6
20260501174538 66 3 23.0 29.0 0.00 0.00 0.16 94 1008.6
20260501173858 66 5 25.0 30.0 0.00 0.00 0.16 94 1008.3
20260501173218 66 358 24.0 30.0 0.00 0.00 0.16 92 1008.6
20260501172538 67 352 23.0 29.0 0.00 0.00 0.16 93 1009.3
20260501171858 67 353 22.0 30.0 0.00 0.00 0.16 93 1009.3
20260501171430 68 351 21.0 30.0 0.00 0.00 0.16 94 1009.3
20260501170538 68 345 25.0 30.0 0.00 0.00 0.16 93 1009.3
20260501170112 68 354 22.0 30.0 0.00 0.00 0.16 94 1009.7
20260501165218 68 10 24.0 30.0 0.00 0.00 0.16 95 1009.3
20260501164538 68 11 20.0 25.0 0.00 0.00 0.16 95 1009.3
20260501163858 68 8 17.0 25.0 0.00 0.00 0.16 96 1009.3
20260501163429 68 8 20.0 24.0 0.00 0.00 0.16 94 1009.3
20260501162539 68 13 16.0 28.0 0.00 0.00 0.16 96 1009.7
20260501162110 68 13 20.0 28.0 0.00 0.00 0.16 95 1009.7
20260501161218 68 2 18.0 24.0 0.00 0.00 0.16 95 1010.0
20260501160540 68 7 18.0 24.0 0.00 0.00 0.16 96 1009.7
20260501155858 68 6 19.0 26.0 0.00 0.00 0.16 96 1010.0
20260501155428 68 3 20.0 26.0 0.00 0.00 0.16 96 1009.7
20260501154748 68 358 18.0 24.0 0.00 0.00 0.16 95 1009.7